Weather History for St. Petersburg Airport, FL

Change the Weather History Date:

Tuesday, March 12, 2013

  Actual Average Record
Temperature  
Mean Temperature 63 °F -  
Max Temperature 69 °F 76 °F 85 °F (1985)
Min Temperature 57 °F 60 °F 44 °F (1998)
Degree Days  
Heating Degree Days 2    
Growing Degree Days 13 (Base 50)    
Moisture  
Dew Point 58 °F    
Average Humidity 81    
Maximum Humidity 94    
Minimum Humidity 65    
Precipitation  
Precipitation 0.32 in - - ()
Sea Level Pressure  
Sea Level Pressure 29.96 in    
Wind  
Wind Speed 11 mph (West)    
Max Wind Speed 18 mph    
Max Gust Speed 26 mph    
Visibility 9 miles    
Events Rain    
Averages and records for this station are not official NWS values.
T = Trace of Precipitation, MM = Missing Value Source: NWS Daily Summary

Daily Weather History Graph

Daily Weather History Graph

Search for Another Location

Airport:

Trip Planner

Search our weather history database for the weather conditions in past years. The results will help you decide how hot, cold, wet, or windy it might be!

Date:

Astronomy

Mar. 12, 2013 Rise Set
Actual Time 7:43 AM EDT 7:37 PM EDT
Civil Twilight 7:19 AM EDT 8:01 PM EDT
Nautical Twilight 6:52 AM EDT 8:28 PM EDT
Astronomical Twilight 6:25 AM EDT 8:55 PM EDT
Moon 7:57 AM EDT (3/12) 8:40 PM EDT (3/12)
Length of Visible Light 12h 41m
Length of Day
11h 54m
New Moon, 1% of the Moon is Illuminated
Mar 12
New Moon
Mar 19
First Quarter
Mar 27
Full
Apr 3
Last Quarter
Apr 10
New

Hourly Weather History & Observations

Time (EDT) Temp. Dew Point Humidity Pressure Visibility Wind Dir Wind Speed Gust Speed Precip Events Conditions
12:53 AM 69.1 °F 60.1 °F 73% 29.94 in 10.0 mi South 9.2 mph - N/A   Clear
1:53 AM 66.9 °F 60.1 °F 79% 29.93 in 10.0 mi SSE 6.9 mph - N/A   Clear
2:53 AM 68.0 °F 61.0 °F 78% 29.91 in 10.0 mi SSE 10.4 mph - N/A   Clear
3:53 AM 68.0 °F 62.1 °F 81% 29.88 in 10.0 mi SSE 13.8 mph - N/A   Partly Cloudy
4:53 AM 66.9 °F 63.0 °F 87% 29.88 in 10.0 mi SSE 13.8 mph - 0.00 in   Overcast
5:53 AM 66.9 °F 64.0 °F 90% 29.88 in 7.0 mi SSE 12.7 mph - 0.02 in Rain Light Rain
6:53 AM 68.0 °F 64.0 °F 87% 29.89 in 10.0 mi South 9.2 mph - 0.00 in   Overcast
7:49 AM 68.0 °F 64.4 °F 88% 29.90 in 4.0 mi South 13.8 mph 24.2 mph 0.12 in Rain Light Rain
7:53 AM 68.0 °F 64.9 °F 90% 29.90 in 2.0 mi South 12.7 mph - 0.13 in Rain Light Rain
8:53 AM 68.0 °F 66.0 °F 93% 29.91 in 6.0 mi South 18.4 mph 26.5 mph 0.16 in Rain Light Rain
9:53 AM 69.1 °F 66.0 °F 90% 29.93 in 10.0 mi SSW 16.1 mph 24.2 mph 0.01 in   Overcast
10:24 AM 66.2 °F 62.6 °F 88% 29.95 in 7.0 mi WNW 18.4 mph - N/A   Overcast
10:41 AM 62.6 °F 60.8 °F 94% 29.97 in 54.0 mi WNW 12.7 mph - N/A   Overcast
10:47 AM 62.6 °F 60.8 °F 94% 29.97 in 4.0 mi WNW 9.2 mph 19.6 mph N/A   Overcast
10:53 AM 63.0 °F 61.0 °F 93% 29.97 in 5.0 mi West 9.2 mph 18.4 mph N/A   Overcast
11:53 AM 63.0 °F 60.1 °F 90% 29.99 in 5.0 mi NW 12.7 mph - N/A   Overcast
12:53 PM 64.0 °F 60.1 °F 87% 29.99 in 10.0 mi NW 11.5 mph - N/A   Overcast
1:53 PM 63.0 °F 57.9 °F 84% 29.98 in 10.0 mi NW 13.8 mph - N/A   Overcast
2:08 PM 64.4 °F 57.2 °F 77% 29.98 in 10.0 mi NW 10.4 mph - N/A   Overcast
2:53 PM 64.0 °F 55.9 °F 75% 29.97 in 10.0 mi West 9.2 mph - N/A   Overcast
3:53 PM 66.0 °F 54.0 °F 65% 29.97 in 10.0 mi NW 12.7 mph - N/A   Partly Cloudy
4:53 PM 64.0 °F 52.0 °F 65% 29.97 in 10.0 mi WNW 10.4 mph - N/A   Clear
5:53 PM 62.1 °F 51.1 °F 67% 29.98 in 10.0 mi NW 13.8 mph - N/A   Clear
6:53 PM 60.1 °F 50.0 °F 69% 29.99 in 10.0 mi NW 9.2 mph - N/A   Clear
7:53 PM 59.0 °F 50.0 °F 72% 30.00 in 10.0 mi WNW 9.2 mph - N/A   Clear
8:53 PM 57.9 °F 50.0 °F 75% 30.03 in 10.0 mi WNW 6.9 mph - N/A   Clear
9:53 PM 59.0 °F 50.0 °F 72% 30.04 in 10.0 mi NNW 11.5 mph - N/A   Clear
10:53 PM 57.9 °F 51.1 °F 78% 30.06 in 10.0 mi NNW 6.9 mph - N/A   Clear
11:53 PM 59.0 °F 51.1 °F 75% 30.07 in 10.0 mi NNW 8.1 mph - N/A   Clear